WEST,Max TemperatureF,Mean TemperatureF,Min TemperatureF,Max Dew PointF,MeanDew PointF,Min DewpointF,Max Humidity, Mean Humidity, Min Humidity, Max Sea Level PressureIn, Mean Sea Level PressureIn, Min Sea Level PressureIn, Max VisibilityMiles, Mean VisibilityMiles, Min VisibilityMiles, Max Wind SpeedMPH, Mean Wind SpeedMPH, Max Gust SpeedMPH,PrecipitationIn, CloudCover, Events, WindDirDegrees
2013-9-1,98,82,65,61,54,48,68,37,12,30.04,29.99,29.83,6,6,6,13,5,,0.00,,,310
2013-9-2,100,84,69,54,49,39,53,29,8,30.06,30.00,29.84,6,6,6,14,4,,0.00,1,,346
2013-9-3,100,84,69,57,51,42,53,32,7,30.09,30.03,29.87,6,6,5,18,6,,0.00,1,,272
2013-9-4,97,82,67,63,51,39,69,38,9,30.09,30.03,29.89,6,6,6,16,6,,0.00,1,,255
2013-9-5,92,79,66,64,61,52,94,65,22,30.06,30.01,29.86,6,5,4,12,7,,0.00,5,,262
2013-9-6,86,74,63,63,60,57,88,69,43,30.09,30.01,29.93,6,6,4,15,7,,0.04,3,Rain,243
2013-9-7,85,74,64,64,61,57,94,69,31,30.06,30.00,29.86,6,6,6,14,6,,0.00,3,,39
2013-9-8,86,75,64,64,62,59,83,61,33,30.21,30.12,30.02,6,6,5,15,7,32,0.00,3,,326
2013-9-9,89,78,66,64,61,54,88,59,22,30.21,30.15,30.00,6,6,5,14,7,,0.00,2,,51
2013-9-10,93,78,64,63,59,54,78,51,19,30.15,30.05,29.86,6,6,6,15,6,18,0.00,2,,325
2013-9-11,91,78,65,61,59,55,83,58,27,30.06,30.00,29.85,6,6,6,15,6,20,0.00,3,,264
2013-9-12,82,72,62,63,61,59,94,70,39,30.06,30.03,29.92,6,6,6,12,6,,0.00,3,,250
2013-9-13,81,72,62,64,62,61,83,68,46,30.15,30.08,29.98,6,6,6,12,5,,0.00,4,,258
2013-9-14,82,74,65,63,61,57,88,68,35,30.15,30.08,29.94,6,6,1,17,7,,0.00,4,,283
2013-9-15,84,74,63,64,61,57,88,68,32,30.12,30.04,29.87,6,6,6,20,5,,0.02,3,Rain-Thunderstorm,334
2013-9-16,82,72,62,66,62,61,94,78,47,30.09,30.05,29.95,6,6,6,15,5,,0.00,2,,267
2013-9-17,77,70,62,66,64,60,100,87,57,30.12,30.06,29.97,6,4,1,13,6,15,2.28,5,Rain-Thunderstorm,323
2013-9-18,77,70,62,64,63,61,100,81,50,30.12,30.09,30.00,6,6,4,9,4,,0.00,3,Rain-Thunderstorm,6
2013-9-19,79,70,60,64,62,61,100,79,47,30.12,30.04,29.91,6,6,4,7,4,,0.00,4,,275
2013-9-20,88,74,60,68,64,61,100,71,36,30.04,29.98,29.85,6,5,3,9,4,,0.00,2,,255
2013-9-21,98,83,68,68,58,43,94,48,9,30.09,30.02,29.87,6,6,4,8,4,,0.00,2,,48
2013-9-22,93,81,69,67,64,59,78,58,26,30.15,30.07,29.93,6,6,4,18,6,,0.00,2,,261
2013-9-23,84,74,65,68,67,65,100,91,74,30.15,30.12,30.05,6,4,2,8,5,,0.00,4,,269
2013-9-24,84,74,65,66,65,62,94,75,42,30.09,30.02,29.88,6,5,4,9,4,,0.00,4,,281
2013-9-25,82,72,63,66,63,59,94,76,49,30.01,29.98,29.87,6,6,4,12,6,,0.00,4,,256
2013-9-26,83,72,62,64,62,59,94,70,40,30.06,30.00,29.90,6,6,6,12,5,16,0.00,2,,258
2013-9-27,88,75,62,66,62,58,94,67,29,30.06,30.01,29.88,6,6,4,16,4,,0.00,2,,309
2013-9-28,85,75,65,68,60,57,88,59,33,30.12,30.04,29.94,6,6,6,12,5,21,0.00,4,,294
2013-9-29,83,74,66,67,63,55,95,69,30,30.15,30.08,29.98,6,6,5,9,5,,0.00,5,,269
2013-9-30,85,74,64,66,64,63,100,75,41,30.09,30.03,29.90,6,6,5,18,6,,0.00,3,,277